This is the latest recevied weather packets stored in our database for station/object YO6LRV-3. If no packets are shown the sender has not sent any weather packets the latest 10 day(s).
| Time | Temp. | Humidity | Pressure | Rain* | Wind** | Luminosity | Snow |
|---|---|---|---|---|---|---|---|
| 1777781164 | 4.44° C | 66% | 1020.9 hPa | - | - | - | - |
| 1777780263 | 4.44° C | 67% | 1020.8 hPa | - | - | - | - |
| 1777779363 | 4.44° C | 66% | 1020.8 hPa | - | - | - | - |
| 1777778463 | 4.44° C | 64% | 1020.6 hPa | - | - | - | - |
| 1777777563 | 4.44° C | 60% | 1020.6 hPa | - | - | - | - |
| 1777776663 | 5° C | 57% | 1020.6 hPa | - | - | - | - |
| 1777775763 | 5° C | 59% | 1020.6 hPa | - | - | - | - |
| 1777774863 | 5° C | 60% | 1020.5 hPa | - | - | - | - |
| 1777773963 | 5° C | 62% | 1020.4 hPa | - | - | - | - |
| 1777773062 | 5.56° C | 60% | 1020.4 hPa | - | - | - | - |
| 1777771262 | 5.56° C | 59% | 1020.4 hPa | - | - | - | - |
| 1777770364 | 5.56° C | 58% | 1020.5 hPa | - | - | - | - |
| 1777769464 | 5.56° C | 58% | 1020.5 hPa | - | - | - | - |
| 1777768564 | 6.11° C | 59% | 1020.5 hPa | - | - | - | - |
| 1777767664 | 6.11° C | 58% | 1020.5 hPa | - | - | - | - |
| 1777766766 | 6.11° C | 59% | 1020.6 hPa | - | - | - | - |
| 1777763163 | 6.11° C | 58% | 1020.8 hPa | - | - | - | - |
| 1777762263 | 6.11° C | 58% | 1020.8 hPa | - | - | - | - |
| 1777760463 | 6.67° C | 57% | 1020.7 hPa | - | - | - | - |
| 1777759563 | 6.11° C | 56% | 1020.2 hPa | - | - | - | - |
| 1777758663 | 6.67° C | 57% | 1020.9 hPa | - | - | - | - |
| 1777749661 | 8.33° C | 54% | 1020.6 hPa | - | - | - | - |
| 1777748764 | 8.89° C | 54% | 1020.6 hPa | - | - | - | - |
| 1777747864 | 8.89° C | 53% | 1020.5 hPa | - | - | - | - |
| 1777746964 | 9.44° C | 53% | 1020.2 hPa | - | - | - | - |
* Rain since midnight (hover to see other rain measurements)
** Current wind speed in m/s (hover to see current wind gust speed)